Weather History for Laramie, WY

Change the Weather History Date:

Tuesday, December 24, 2013

  Actual Average Record
Temperature  
Mean Temperature 22 °F 21 °F  
Max Temperature 36 °F 32 °F 56 °F (1955)
Min Temperature 8 °F 10 °F -22 °F (1983)
Degree Days  
Heating Degree Days 43 44  
Month to date heating degree days 1123 1048  
Since 1 July heating degree days 3245 3360  
Cooling Degree Days 0 0  
Month to date cooling degree days 0 0  
Year to date cooling degree days 162 67  
Moisture  
Dew Point 20 °F    
Average Humidity 74    
Maximum Humidity 92    
Minimum Humidity 56    
Precipitation  
Precipitation T in 0.01 in 1.15 in (1982)
Month to date precipitation 0.07 0.26  
Year to date precipitation 11.99 10.86  
Sea Level Pressure  
Sea Level Pressure 30.12 in    
Wind  
Wind Speed 16 mph (WNW)    
Max Wind Speed 36 mph    
Max Gust Speed 45 mph    
Visibility 5 miles    
Events Fog , Snow    
T = Trace of Precipitation, MM = Missing Value Source: NWS Daily Summary

Daily Weather History Graph

Daily Weather History Graph

Search for Another Location

Airport:

Trip Planner

Search our weather history database for the weather conditions in past years. The results will help you decide how hot, cold, wet, or windy it might be!

Date:

Astronomy

Dec. 24, 2013 Rise Set
Actual Time 7:26 AM MST 4:38 PM MST
Civil Twilight 6:55 AM MST 5:09 PM MST
Nautical Twilight 6:20 AM MST 5:44 PM MST
Astronomical Twilight 5:46 AM MST 6:18 PM MST
Moon 11:53 PM MST (12/24) 11:17 AM MST (12/24)
Length of Visible Light 10h 14m
Length of Day
9h 11m
Waning Gibbous, 58% of the Moon is Illuminated
Dec 24
Waning Gibbous
Dec 25
Last Quarter
Jan 1
New
Jan 7
First Quarter
Jan 15
Full

Hourly Weather History & Observations

Time (MST) Temp. Windchill Dew Point Humidity Pressure Visibility Wind Dir Wind Speed Gust Speed Precip Events Conditions
12:53 AM 35.1 °F 24.1 °F 24.1 °F 64% 30.06 in 10.0 mi WSW 19.6 mph 36.8 mph N/A   Mostly Cloudy
1:53 AM 35.1 °F 31.0 °F 23.0 °F 61% 30.06 in 10.0 mi Variable 4.6 mph - N/A   Overcast
2:25 AM 33.8 °F 27.0 °F 21.2 °F 60% 30.07 in 10.0 mi SSW 8.1 mph 20.7 mph N/A   Mostly Cloudy
2:53 AM 33.1 °F 22.2 °F 21.9 °F 64% 30.04 in 10.0 mi SW 17.3 mph - N/A   Partly Cloudy
3:53 AM 34.0 °F 23.8 °F 21.9 °F 61% 30.03 in 10.0 mi SW 16.1 mph - N/A   Partly Cloudy
4:53 AM 34.0 °F 24.6 °F 21.9 °F 61% 30.01 in 10.0 mi SW 13.8 mph - N/A   Overcast
5:53 AM 35.1 °F 26.4 °F 21.9 °F 59% 29.99 in 10.0 mi West 12.7 mph - N/A   Overcast
6:53 AM 34.0 °F 21.0 °F 21.9 °F 61% 29.98 in 10.0 mi West 26.5 mph 40.3 mph N/A   Mostly Cloudy
7:53 AM 34.0 °F 21.8 °F 21.0 °F 59% 29.99 in 9.0 mi West 23.0 mph 33.4 mph 0.00 in   Overcast
8:33 AM 32.0 °F 19.5 °F 24.8 °F 75% 30.02 in 1.2 mi West 21.9 mph - 0.00 in Snow Light Snow
8:37 AM 30.2 °F 18.1 °F 24.8 °F 80% 30.02 in 0.8 mi West 18.4 mph 26.5 mph 0.00 in Snow Light Snow
8:44 AM 30.2 °F 18.1 °F 26.6 °F 86% 30.02 in 0.2 mi West 18.4 mph - 0.00 in Fog , Snow Snow
8:53 AM 30.0 °F 18.7 °F 28.0 °F 92% 30.02 in 0.5 mi WNW 16.1 mph - 0.00 in Fog , Snow Light Snow
8:56 AM 30.2 °F 18.5 °F 28.4 °F 93% 30.02 in 1.0 mi WNW 17.3 mph - 0.00 in Snow Light Snow
9:05 AM 30.2 °F 18.9 °F 28.4 °F 93% 30.03 in 0.8 mi West 16.1 mph - 0.00 in Snow Light Snow
9:20 AM 30.2 °F 17.8 °F 28.4 °F 93% 30.03 in 0.5 mi West 19.6 mph 25.3 mph 0.00 in Fog , Snow Light Snow
9:31 AM 30.2 °F 19.8 °F 28.4 °F 93% 30.03 in 0.8 mi West 13.8 mph - 0.00 in Snow Light Snow
9:36 AM 28.4 °F 18.0 °F 26.6 °F 93% 30.03 in 2.5 mi WSW 12.7 mph - 0.00 in Snow Light Snow
9:40 AM 30.2 °F 20.8 °F 28.4 °F 93% 30.03 in 4.0 mi WSW 11.5 mph - 0.00 in Snow Light Snow
9:53 AM 32.0 °F 18.9 °F 25.0 °F 75% 30.05 in 10.0 mi West 24.2 mph 31.1 mph 0.00 in   Mostly Cloudy
10:19 AM 30.2 °F 15.7 °F 24.8 °F 80% 30.08 in 1.2 mi NW 27.6 mph 39.1 mph 0.00 in Snow Light Snow
10:21 AM 28.4 °F 14.7 °F 24.8 °F 86% 30.09 in 0.5 mi NNW 21.9 mph 39.1 mph 0.00 in Fog , Snow Light Snow
10:31 AM 24.8 °F 9.0 °F 23.0 °F 93% 30.09 in 0.2 mi North 25.3 mph 29.9 mph 0.00 in Fog , Snow Light Snow
10:53 AM 25.0 °F 10.9 °F 21.9 °F 88% 30.13 in 0.2 mi NNW 19.6 mph 29.9 mph 0.00 in Fog , Snow Snow
11:08 AM 24.8 °F 13.4 °F 21.2 °F 86% 30.10 in 0.5 mi NNW 12.7 mph 26.5 mph 0.00 in Fog , Snow Light Snow
11:15 AM 24.8 °F 10.7 °F 21.2 °F 86% 30.11 in 1.0 mi NNW 19.6 mph 24.2 mph 0.00 in Snow Light Snow
11:28 AM 24.8 °F 10.3 °F 21.2 °F 86% 30.11 in 0.5 mi NNW 20.7 mph 26.5 mph 0.00 in Fog , Snow Light Snow
11:40 AM 24.8 °F 10.7 °F 19.4 °F 80% 30.11 in 1.2 mi North 19.6 mph 29.9 mph 0.00 in Snow Light Snow
11:48 AM 24.8 °F 11.9 °F 19.4 °F 80% 30.11 in 2.5 mi NNW 16.1 mph 25.3 mph 0.00 in Snow Light Snow
11:53 AM 24.1 °F 10.1 °F 21.0 °F 88% 30.15 in 1.5 mi NNW 18.4 mph 25.3 mph 0.00 in Snow Light Snow
12:02 PM 24.8 °F 11.9 °F 21.2 °F 86% 30.11 in 0.8 mi NNW 16.1 mph - 0.00 in Snow Light Snow
12:07 PM 26.6 °F 13.4 °F 21.2 °F 80% 30.11 in 2.0 mi NNW 18.4 mph - 0.00 in Snow Light Snow
12:18 PM 24.8 °F 11.5 °F 21.2 °F 86% 30.11 in 0.8 mi NNW 17.3 mph 26.5 mph 0.00 in Snow Light Snow
12:26 PM 24.8 °F 9.6 °F 19.4 °F 80% 30.11 in 0.5 mi NNW 23.0 mph 29.9 mph 0.00 in Snow Snow
12:33 PM 24.8 °F 10.3 °F 19.4 °F 80% 30.11 in 1.0 mi NNW 20.7 mph 29.9 mph 0.00 in Snow Light Snow
12:49 PM 24.8 °F 10.7 °F 21.2 °F 86% 30.12 in 0.8 mi NNW 19.6 mph - 0.00 in Snow Light Snow
12:53 PM 25.0 °F 10.6 °F 21.9 °F 88% 30.14 in 0.8 mi NW 20.7 mph 25.3 mph 0.00 in Snow Light Snow
1:02 PM 24.8 °F 10.0 °F 21.2 °F 86% 30.12 in 1.8 mi NW 21.9 mph - 0.00 in Snow Light Snow
1:06 PM 24.8 °F 10.0 °F 19.4 °F 80% 30.12 in 3.0 mi NW 21.9 mph - 0.00 in Snow Light Snow
1:53 PM 25.0 °F 8.9 °F 18.0 °F 75% 30.16 in 10.0 mi NW 26.5 mph - 0.00 in   Mostly Cloudy
2:53 PM 24.1 °F 7.7 °F 17.1 °F 75% 30.19 in 10.0 mi NW 26.5 mph 33.4 mph N/A   Clear
3:53 PM 23.0 °F 7.6 °F 14.0 °F 68% 30.22 in 10.0 mi NW 21.9 mph 32.2 mph N/A   Clear
4:53 PM 18.0 °F 6.9 °F 12.0 °F 78% 30.28 in 10.0 mi NNW 9.2 mph - N/A   Clear
5:53 PM 12.9 °F - 9.0 °F 84% 30.31 in 10.0 mi Calm Calm - N/A   Clear
6:53 PM 12.0 °F 1.5 °F 8.1 °F 84% 30.33 in 10.0 mi South 6.9 mph - N/A   Clear
7:53 PM 10.0 °F -3.7 °F 6.1 °F 84% 30.33 in 10.0 mi SW 10.4 mph - N/A   Clear
8:53 PM 14.0 °F 1.2 °F 7.0 °F 74% 30.32 in 10.0 mi WSW 10.4 mph - N/A   Clear
9:53 PM 16.0 °F 1.7 °F 7.0 °F 68% 30.30 in 10.0 mi West 13.8 mph - N/A   Clear
10:53 PM 17.1 °F 2.5 °F 6.1 °F 62% 30.35 in 10.0 mi SW 15.0 mph 23.0 mph N/A   Clear
11:53 PM 18.0 °F 2.6 °F 7.0 °F 62% 30.36 in 10.0 mi WSW 17.3 mph - N/A   Clear